Back to catalog

POLAR SCOUT YUKON

AliveScienceSSO
NORAD 43808·PAYLOAD·🇺🇸 United States

Launched Dec 3, 2018 from Vandenberg Space Force Base

Loading…

Next Passes (next 24 hours)

TLE

FreshSource: Space-Track

Epoch: Sep 14, 2026, 04:04 UTC

1 43808U 18099BC  26257.17002404  .00018005  00000-0  43140-3 0  9999
2 43808  97.4614 331.7268 0004266  21.8885 338.2543 15.41470413427209

Track POLAR SCOUT YUKON in real time with AllMySat

Download on the App Store